Tracking 25612 objects as of 19-May-2022
HD Live streaming from Space Station
objects crossing your sky now

ARIANE 1 DEB

Track ARIANE 1 DEB now!
10-day predictions


NORAD ID: 17212
Int'l Code: 1986-019BQ
Perigee: 543.5 km
Apogee: 560.8 km
Inclination: 98.6 °
Period: 95.5 minutes
Semi major axis: 6923 km
RCS: 0.0885 m2 (small)
Launch date: February 22, 1986
Source: France (FR)
Launch site: FRENCH GUIANA (FRGUI)

Note: This is SATELLITE DEBRIS
aabbcc
Your satellite tracking list
Your tracking list is empty




NASA's NSSDC Master Catalog

Two Line Element Set (TLE):
1 17212U 86019BQ  22138.51255998  .00041214  00000-0  27297-2 0  9998
2 17212  98.5580 230.8338 0012557 210.1017 216.5027 15.07117537878978
Source of the keplerian elements: AFSPC